Challenge Cours la Province !

Le jogging de Saint-Joseph à Trois-Ponts (11.00 km)

dimanche 18 mars 2018

Vous pouvez trouver Le classement original sur : www.otopservices.be  
CHALLENGE COURS LA PROVINCE
LE JOGGING DE SAINT-JOSEPH - TROIS-PONTS
DISTANCE : 11.00 km
dimanche 18 mars 2018
 
Place dos NOM Catégorie Pl/cat temps temps/km Vitesse
01:00:00              
1 1102 JEAN FAYMONVILLE ESPOIR H 1 00:46:09 04:12 14.30
2 1040 MAEHDI LADBIRI SENIOR H 1 00:46:51 04:16 14.09
3 1075 JULIEN CHAMBERLAND SENIOR H 2 00:49:53 04:32 13.23
4 1051 KEUIN NIZET SENIOR H 3 00:50:26 04:35 13.09
5 1076 MAGID CHOUDNA SENIOR H 4 00:50:44 04:37 13.01
6 1078 NICOLAS SCHRAYEN ESPOIR H 2 00:51:01 04:38 12.94
7 1094 VICTOR BOULANGER VETERAN 3 1 00:51:30 04:41 12.82
8 1060 CHRISTOPHE PARMANTIER VETERAN 1 1 00:52:20 04:45 12.61
9 1077 JORDAN THOMAS SENIOR H 5 00:54:42 04:58 12.07
10 1059 DOUCHAN HANUISE ESPOIR H 3 00:55:00 05:00 12.00
11 1097 BRYAN BOULANGER SENIOR H 6 00:55:48 05:04 11.83
12 1006 GREGORY THOME SENIOR H 7 00:56:48 05:10 11.62
13 1039 ASTRID VLIEGEN SENIOR D 1 00:57:08 05:12 11.55
14 1074 CEDRIC HERMAN SENIOR H 8 00:59:14 05:23 11.14
15 1031 TOM FOCANT ESPOIR H 4 00:59:22 05:24 11.12
16 1002 MAXIME DUMEZ SENIOR H 9 01:00:25 05:30 10.92
17 1061 SEBASTIEN LAKAILLE SENIOR H 10 01:00:41 05:31 10.88
18 1106 VIVIAN GILLES SENIOR H 11 01:01:22 05:35 10.76
19 1107 NICOLAS HANSEZ SENIOR H 12 01:01:24 05:35 10.75
20 1105 JEREMY LECHANTEUR SENIOR H 13 01:01:24 05:35 10.75
21 1052 CHRISTOPHE VINCENT VETERAN 1 2 01:01:39 05:36 10.71
22 1089 THEO SCHINCKUS ESPOIR H 5 01:01:42 05:37 10.70
23 1090 JONATHAN SCHINCKUS SENIOR H 14 01:01:43 05:37 10.69
24 1104 FRED LEMBREE SENIOR H 15 01:02:03 05:38 10.64
25 1033 STEVEN FOCANT SENIOR H 16 01:02:50 05:43 10.50
26 1047 MICHAEL SCHAFF SENIOR H 17 01:03:13 05:45 10.44
27 1032 SAMUEL DE TOFFOL SENIOR H 18 01:03:43 05:48 10.36
28 1088 NADINE REYNARTZ AINÉE 1 1 01:03:57 05:49 10.32
29 1045 ANTHONY THANNEN SENIOR H 19 01:04:01 05:49 10.31
30 1055 FERDI SALVATORI SENIOR H 20 01:04:17 05:51 10.27
31 1054 RAPHAEL THONON VETERAN 1 3 01:04:36 05:52 10.22
32 1057 CHRISTOPHE COUGNOT SENIOR H 21 01:04:52 05:54 10.17
33 1062 MICHELANGELO TERF VÉTÉRAN 2 1 01:04:52 05:54 10.17
34 1025 EVELYNE CUPERS AINÉE 1 2 01:05:27 05:57 10.08
35 1022 MARGAUX ROMPEN ESPOIR D 1 01:05:28 05:57 10.08
36 1019 JONATHAN DE CECCO SENIOR H 22 01:05:34 05:58 10.07
37 1044 GEOFFREY TRINE SENIOR H 23 01:06:24 06:02 9.94
38 1053 OLIVIER LEMAIRE VETERAN 1 4 01:07:44 06:09 9.74
39 1083 TIFFANY MOOR SENIOR D 2 01:08:40 06:15 9.61
40 1042 GISKAR CHOKOUTE SENIOR H 24 01:09:10 06:17 9.54
41 1092 PIERRE LOOS SENIOR H 25 01:09:20 06:18 9.52
42 1084 POLYKARP VAN KERREBADECK VETERAN 3 2 01:09:39 06:20 9.48
43 1046 TURPAL TAMAYEV ESPOIR H 6 01:09:43 06:20 9.47
44 1050 LAURENT BANNEUX SENIOR H 26 01:10:15 06:23 9.40
45 1041 TANJA WEINAND AINÉE 1 3 01:10:33 06:25 9.36
46 1018 FREDERIC DE CECCO VETERAN 1 5 01:10:56 06:27 9.30
47 1085 NICOLAS BRUSKIN SENIOR H 27 01:10:58 06:27 9.30
48 1099 NICOLAS RESIMONT SENIOR H 28 01:12:49 06:37 9.06
49 1001 OLIVIER DETAILLE VETERAN 1 6 01:13:27 06:41 8.99
50 1063 EMILIE PRICK SENIOR D 3 01:13:36 06:41 8.97
51 1038 FREDERIC LEKEU VETERAN 1 7 01:14:10 06:45 8.90
52 1070 DELPHINE LEPOLI SENIOR D 4 01:14:37 06:47 8.85
53 1069 EMILIE MARQUET SENIOR D 5 01:14:37 06:47 8.85
54 1035 DAVID DONA SENIOR H 29 01:14:58 06:49 8.80
55 1036 JEAN-MARC SERVAIS VETERAN 1 8 01:15:01 06:49 8.80
56 1034 JEAN-MARC SCHILLEWAERT VETERAN 1 9 01:15:01 06:49 8.80
57 1073 YANNICKDANIEL JOSKIN SENIOR H 30 01:15:01 06:49 8.80
58 1100 JEREMIE CRAHAY SENIOR H 31 01:15:02 06:49 8.80
59 1066 STEPHANE MOUHANNA SENIOR H 32 01:15:02 06:49 8.80
60 1095 BERNADETTE MARECHAL AINÉE 2 1 01:15:20 06:51 8.76
61 1065 MANSOUN ALIZAI ESPOIR H 7 01:16:08 06:55 8.67
62 1068 VALERIE PLANCHARD AINÉE 1 4 01:17:15 07:01 8.54
63 1072 KATRIEN VANGESTEL SENIOR D 6 01:17:15 07:01 8.54
64 176 CHRISTINE MOREAU AINÉE 2 2 01:17:34 07:03 8.51
65 1071 LUCIE DE BONT AINÉE 2 3 01:17:39 07:04 8.50
66 1005 VERONIQUE STAS AINÉE 1 5 01:17:59 07:05 8.46
67 1109 CHRISTEL DELFOSSE XXX   01:18:20 07:07 8.43
68 1030 AUDREY BALDEWYNS SENIOR D 7 01:18:47 07:10 8.38
69 1086 CLEMENTINE DECKERS SENIOR D 8 01:20:32 07:19 8.20
70 1003 LUC DETAILLE VÉTÉRAN 2 2 01:20:36 07:20 8.19
71 1011 PHILIPPE OLIVIER VÉTÉRAN 2 3 01:24:49 07:43 7.78
72 1000 MARGUERITE OLIVIER AINÉE 2 4 01:24:49 07:43 7.78
73 1043 RACHEL EYIDI SENIOR D 9 01:27:16 07:56 7.56
74 1008 NOÉMIE DEFRERE SENIOR D 10 01:27:23 07:57 7.55
75 1082 EMILIE BODSON SENIOR D 11 01:30:24 08:13 7.30
76 1020 DOMINIQUE NIJS AINÉE 3 1 01:30:36 08:14 7.28
77 1021 BÉATRICE PETITJEAN AINÉE 2 5 01:31:21 08:18 7.22
78 1012 VERONIQUE MEYERS AINÉE 1 6 01:35:33 08:41 6.91
79 1007 FABIENNE PIETEUR AINÉE 2 6 01:35:35 08:41 6.90
80 1016 VIRGINIE CRANINX SENIOR D 12 01:41:53 09:16 6.48
81 1017 ROLAND KUPPER SENIOR H 33 01:41:54 09:16 6.48
82 1014 JOELLE SCHMETZ AINÉE 2 7 01:44:31 09:30 6.31
83 1037 THEO LEKEU ESPOIR H 8 01:58:07 10:44 5.59
84 1093 HUGO GEIREGAT ESPOIR H 9 01:58:08 10:44 5.59
               
Nos dernières videos